• Processing (Info)

  • MPEC 2023-J90 : 2023 JN

    The following Minor Planet Electronic Circular may be linked-to from your own Web pages, but must not otherwise be redistributed electronically.

    A form allowing access to any MPEC is at the bottom of this page.


    Read MPEC 2023-J89 Read MPEC 2023-J91


    M.P.E.C. 2023-J90                                  Issued 2023 May 10, 22:09 UT
    
         The Minor Planet Electronic Circulars contain information on unusual
             minor planets, routine data on comets and natural satellites,
             and occasional editorial announcements.  They are published
        on behalf of Division F of the International Astronomical Union by the
              Minor Planet Center, Smithsonian Astrophysical Observatory,
                              Cambridge, MA 02138, U.S.A.
    			  
                 Prepared using the Tamkin Foundation Computer Network
    
                                  MPC@CFA.HARVARD.EDU
                URL https://www.minorplanetcenter.net/    ISSN 1523-6714
    
                                     2023 JN                                 
    
    
    Observations:
         K23J00N*1C2023 05 09.28737513 37 47.716-03 28 46.06         19.06GVEJ090703
         K23J00N 1C2023 05 09.28859913 37 52.536-03 28 10.06         18.18GVEJ090703
         K23J00N 1C2023 05 09.28982813 37 57.212-03 27 33.98         18.41GVEJ090703
         K23J00N 1C2023 05 09.29105513 38 01.925-03 26 58.42         18.68GVEJ090703
         K23J00N KC2023 05 09.38337313 43 54.050-02 42 00.40         18.44GVEJ090I52
         K23J00N KC2023 05 09.38389913 43 56.090-02 41 49.90         16.55GVEJ090I52
         K23J00N KC2023 05 09.38441313 43 58.010-02 41 30.30         18.45GVEJ090I52
         K23J00N KC2023 05 09.38492813 43 59.960-02 41 15.40         18.19GVEJ090I52
         K23J00N KC2023 05 09.59335813 57 28.33 -01 03 47.0          18.4 GVEJ090900
         K23J00N KC2023 05 09.59979513 57 51.13 -01 00 50.3          18.1 GVEJ090900
         K23J00N KC2023 05 09.60623213 58 13.84 -00 57 54.0          18.7 GVEJ090900
         K23J00N KC2023 05 09.75856 14 07 49.86 +00 17 21.5          18.6 VZEJ090M49
         K23J00N KC2023 05 09.76833 14 08 23.20 +00 21 36.3          18.8 VZEJ090M49
         K23J00N KC2023 05 09.77693 14 08 52.40 +00 25 20.2          18.7 VZEJ090M49
         K23J00N KC2023 05 09.78657 14 09 24.93 +00 29 29.8          18.9 VZEJ090M49
         K23J00N KC2023 05 09.79692 14 09 59.75 +00 33 57.9          18.9 VZEJ090M49
         K23J00N KC2023 05 09.80724 14 10 34.21 +00 38 23.6          18.9 VZEJ090M49
         K23J00N KC2023 05 09.85743 14 13 15.91 +00 51 10.6          18.7 GXEJ090G02
         K23J00N KC2023 05 09.85964 14 13 23.19 +00 52 06.4          18.8 GXEJ090G02
         K23J00N KC2023 05 09.86201 14 13 31.03 +00 53 07.1          18.7 GXEJ090G02
         K23J00N KC2023 05 09.87350114 14 10.94 +00 58 19.1          18.7 GVEJ090L01
         K23J00N KC2023 05 09.87425914 14 13.44 +00 58 38.4          18.8 GVEJ090L01
         K23J00N KC2023 05 09.87501714 14 15.90 +00 58 57.5          18.8 GVEJ090L01
         K23J00N KC2023 05 09.87586814 14 18.70 +00 59 19.0          18.7 GVEJ090L01
         K23J00N KC2023 05 09.87664814 14 21.25 +00 59 38.7          18.6 GVEJ090L01
         K23J00N KC2023 05 09.90308 14 15 47.08 +01 18 53.9          18.4 GVEJ090M21
         K23J00N KC2023 05 09.90321814 15 53.25 +01 10 55.6          18.2 GXEJ090958
         K23J00N KC2023 05 09.90523514 15 59.78 +01 11 45.6          18.3 GXEJ090958
         K23J00N KC2023 05 09.90749114 16 07.16 +01 12 43.2          18.5 GXEJ090958
         K23J00N KC2023 05 10.14277914 28 52.06 +02 47 17.3          18.8 VuEJ090H21
         K23J00N KC2023 05 10.14470814 28 57.86 +02 48 01.9          18.9 VuEJ090H21
         K23J00N KC2023 05 10.14663614 29 03.63 +02 48 46.0          19.1 VuEJ090H21
         K23J00N KC2023 05 10.14856414 29 09.39 +02 49 30.4          18.7 VuEJ090H21
         K23J00N KC2023 05 10.15030014 29 14.59 +02 50 10.8          18.8 VuEJ090H21
         K23J00N KC2023 05 10.17764414 30 43.00 +03 01 01.9          18.9 GXEJ090858
         K23J00N KC2023 05 10.18249414 30 57.37 +03 02 52.4          18.8 GXEJ090858
         K23J00N KC2023 05 10.18727214 31 11.50 +03 04 41.3          18.7 GXEJ090858
         K23J00N KC2023 05 10.89914415 03 37.891+06 59 14.97         18.5 GVEJ090K63
         K23J00N KC2023 05 10.90248615 03 45.707+07 00 13.14         18.1 GVEJ090K63
         K23J00N KC2023 05 10.90613215 03 53.994+07 01 15.94         19.2 GVEJ090K63
    
    Observer details:
    703 Catalina Sky Survey.  Observer J. K. Hogan.  Measurers E. J. Christensen,
        D. Fay, J. B. Fazekas, D. C. Fuls, A. R. Gibbs, A. D. Grauer, H. Groeller,
        J. K. Hogan, R. A. Kowalski, S. M. Larson, G. J. Leonard, D. Rankin, R. L.
        Seaman, A. Serrano, F. C. Shelly, K. W. Wierzchos.  0.68-m Schmidt + 10K
        CCD.
    858 Tebbutt Observatory, Edgewood.  Observer F. B. Zoltowski.  0.51-m f/8.1
        Schmidt-Cassegrain + CCD.
    900 Moriyama.  Observer Y. Ikari.  0.26-m f/7.0 reflector + CCD.
    958 Observatoire de Dax.  Observers P. Dupouy, J. B. de Vanssay.  Measurer P.
        Dupouy.  0.50-m f/4.5 Reflector + CCD.
    G02 KYSUCE Observatory, Kysucke Nove Mesto.  Observer M. Urbanik.  0.40-m
        f/5.5 Corrected Dall-Kirkham + CCD.
    H21 Astronomical Research Observatory, Westfield.  Observer R. Holmes.
        Measurers T. Linder, R. Holmes, L. Horn.  0.76-m f/3.0 astrograph + CCD.
    I52 Steward Observatory, Mt. Lemmon Station.  Observer R. A. Kowalski.
        Measurers E. J. Christensen, D. Fay, J. B. Fazekas, D. C. Fuls, A. R.
        Gibbs, A. D. Grauer, H. Groeller, J. K. Hogan, R. A. Kowalski, S. M.
        Larson, G. J. Leonard, D. Rankin, R. L. Seaman, A. Serrano, F. C. Shelly,
        K. W. Wierzchos.  1.0-m prime focus + CCD.
    K63 G. Pascoli Observatory, Castelvecchio Pascoli.  Observer R. Bacci.  0.41-m
        f/3.2 Reflector + CCD.
    L01 Visnjan Observatory, Tican.  Observers K. Korlevic, I. Lyon.  Measurer K.
        Korlevic.  1.0-m f/2.9 reflector + CCD.
    M21 Schiaparelli Southern Observatory, Hakos.  Observers A. Aletti, F.
        Bellini, L. Buzzi, G. Galli.  Measurer L. Buzzi.  0.36-m f/8.4 reflector +
        CCD.
    M49 IAS Remote Observatory, Hakos.  Observer D. Husar.  0.25-m f/4.6 reflector
        + CCD.
    
    Orbital elements:
    2023 JN                                                  Earth MOID = 0.0131 AU
    Epoch 2023 Feb. 25.0 TT = JDT 2460000.5                 Veres                   
    M 342.51925              (2000.0)            P               Q                  
    n   0.33843890     Peri.  334.50569     -0.92143472     +0.35334174             
    a   2.0393067      Node   227.18550     -0.30798433     -0.91777704             
    e   0.5142485      Incl.   12.72472     -0.23686220     -0.18120408             
    P   2.91           H   26.17          G   0.15           U   7                  
    Residuals in seconds of arc
    230509 703  0.8-  0.4+    230509 M49  0.3-  0.0     230509 958  1.0+  1.3+
    230509 703  1.0+  0.3+    230509 M49  0.3+  0.4+    230510 H21  0.1+  0.2-
    230509 703  0.3+  0.1+    230509 M49  0.3-  0.1+    230510 H21  0.3+  0.1-
    230509 703  0.4+  0.5-    230509 G02  0.3-  0.3+    230510 H21  0.2+  0.5-
    230509 I52  0.2-  0.1-    230509 G02  0.5-  0.1-    230510 H21  0.0   0.5-
    230509 I52 (0.5+  4.8-)   230509 G02  0.2-  0.5+    230510 H21  0.1+  0.1-
    230509 I52  0.0   0.1-    230509 L01  0.5-  0.1+    230510 858  0.0   0.1+
    230509 I52  0.0   0.1-    230509 L01  0.2-  0.2+    230510 858  0.0   0.1+
    230509 900  0.2-  0.2-    230509 L01  0.6-  0.2+    230510 858  0.1+  0.3+
    230509 900  0.5+  0.0     230509 L01  0.4-  0.2+    230510 K63  0.1+  0.5-
    230509 900  0.3+  0.0     230509 L01  0.4-  0.2+    230510 K63  1.1+  0.1+
    230509 M49  0.4-  0.1+    230509 M21  0.3+  0.3-    230510 K63  1.1-  0.2+
    230509 M49  0.1-  0.1+    230509 958  0.2+  0.6+
    230509 M49  0.1+  0.4+    230509 958  0.0   0.1+
    
    Ephemeris:
    2023 JN                  a,e,i = 2.04, 0.51, 13                  q = 0.9906
    Date    TT    R. A. (2000) Decl.     Delta      r    Elong.  Phase     V
    2023 04 10    06 26 55.9 -24 14 38   0.1701  0.9951    83.0    87.3    25.4
    ...
    2023 04 25    06 56 59.7 -25 23 52   0.08381 0.9948    80.1    95.1    24.2
    ...
    2023 05 03    08 07 35.6 -26 23 51   0.03725 1.0086    90.2    87.7    22.1
    ...
    2023 05 09    13 18 03.9 -05 48 29   0.01768 1.0250   152.3    27.2    18.7
    2023 05 10    14 21 03.5 +01 55 11   0.02010 1.0282   157.8    21.8    18.8
    2023 05 11    15 07 29.0 +07 30 58   0.02394 1.0315   154.8    24.6    19.3
    ...
    2023 05 17    16 53 48.0 +18 07 52   0.05690 1.0539   137.8    40.2    21.6
    ...
    2023 05 25    17 24 51.1 +19 55 44   0.1062  1.0901   134.8    41.2    23.1
    ...
    2023 06 09    17 37 46.5 +18 43 45   0.2031  1.1732   137.7    35.6    24.5
    
    M. P. C. Staff               (C) Copyright 2023 MPC           M.P.E.C. 2023-J90
    


    Read MPEC 2023-J89 Read MPEC 2023-J91


    MPEC number:

    Enter an MPEC number in one of the following forms:

    • 1997-B01 (the full form)
    • J97B01 (the packed version of the full form)
    • B01 (the abbreviated form)